ERS-2 (23560 NORAD) Tracking and Keplerian Element Data

This shows tracking and keplerian element data for the satellite.

Feedback or suggestion? Click here.




ElementValue
Catalog23560
NameERS-2
Epoch Orbit25448
Epoch Day323.37799419
Epoch Year2018
RAAN30.5926
Inclination98.5184
Eccentricity0.0003146
Argument of Perigee358.0829
Mean Anonmoly2.0391
Mean Motion15.22124803
Decay Rate1.066E-05
L11 23560U 95021A 18323.37799419 .00001066 00000-0 50374-4 0 9995
L22 23560 98.5184 30.5926 0003146 358.0829 2.0391 15.22124803254483

Live tracking and technical data element details for ERS-2 (NORAD 23560). ERS-2 can be tracked NOW for your location showing map with azimuth and elevation plus other details from your city location.

Track the satellite on the map from your city or location and see movement details for azimuth, elevation, latitude, longitude, range, height, and movement on the map or in text.







IsCatalogInMostPopularTable: catalog: 23560, numindb: 27
Update: records affected: 1



GetName: 23560 ERS-2

Hit Count: updated at: Wed, 21 Nov 2018 05:46:30 GMT